WMT8812 LIRF-LEIB

Flight info

Callsign WMT8812
Flight time 1h 32m
Altitude 35000
Route SOSAK5AXESINO8H/25 ESINO DCT ABIDU DCT GOKMI DCT SUPUX DCT KUPIM DCT SUXER DCT RIPAL DCT MORSS
Aircraft A321/M-SDE1E2E3FGIJ1J4RWXY/LB1

Departure

Time 2026-05-06 15:44
Airport Rome–Fiumicino Leonardo da Vinci International Airport (LIRF)

Arrival

Time 2026-05-06 17:17
Airport Ibiza Airport (LEIB)
Time Latitude Longitude Altitude Speed Heading
2026-05-06 15:16 41.79554 12.26155 15 ft 0 kts 115°
2026-05-06 15:32 41.79555 12.26152 14 ft 3 kts 115°
2026-05-06 15:32 41.79565 12.26125 16 ft 2 kts 115°
2026-05-06 15:32 41.79572 12.26093 15 ft 4 kts 83°
2026-05-06 15:33 41.79562 12.26065 17 ft 4 kts 34°
2026-05-06 15:33 41.79549 12.26055 14 ft 0 kts 25°
2026-05-06 15:36 41.79555 12.26058 15 ft 3 kts 25°
2026-05-06 15:36 41.79585 12.26077 17 ft 7 kts 25°
2026-05-06 15:37 41.79636 12.26110 14 ft 9 kts 25°
2026-05-06 15:37 41.79710 12.26151 15 ft 14 kts
2026-05-06 15:37 41.79767 12.26063 14 ft 14 kts 295°
2026-05-06 15:37 41.79816 12.25925 15 ft 19 kts 296°
2026-05-06 15:38 41.79889 12.25837 14 ft 13 kts
2026-05-06 15:38 41.79991 12.25894 16 ft 22 kts 24°
2026-05-06 15:38 41.80153 12.25996 14 ft 27 kts 25°
2026-05-06 15:38 41.80297 12.26084 14 ft 17 kts 24°
2026-05-06 15:39 41.80365 12.26126 16 ft 0 kts 25°
2026-05-06 15:39 41.80390 12.26141 15 ft 8 kts 24°
2026-05-06 15:39 41.80452 12.26172 16 ft 13 kts 12°
2026-05-06 15:39 41.80535 12.26264 16 ft 18 kts 69°
2026-05-06 15:40 41.80584 12.26433 16 ft 21 kts 69°
2026-05-06 15:40 41.80640 12.26645 16 ft 26 kts 71°
2026-05-06 15:40 41.80704 12.26875 14 ft 27 kts 69°
2026-05-06 15:40 41.80789 12.27043 13 ft 17 kts
2026-05-06 15:41 41.80875 12.27008 13 ft 2 kts 340°
2026-05-06 15:41 41.80877 12.27008 13 ft 0 kts 340°
2026-05-06 15:42 41.80880 12.27006 13 ft 2 kts 340°
2026-05-06 15:42 41.80917 12.26988 13 ft 11 kts 340°
2026-05-06 15:42 41.80954 12.26916 13 ft 10 kts 251°
2026-05-06 15:42 41.80951 12.26904 13 ft 0 kts 251°
2026-05-06 15:44 41.80919 12.26786 13 ft 46 kts 249°
2026-05-06 15:44 41.80717 12.26061 21 ft 118 kts 249°
2026-05-06 15:44 41.80366 12.24777 30 ft 171 kts 248°
2026-05-06 15:44 41.79979 12.23277 672 ft 168 kts 245°
2026-05-06 15:45 41.79558 12.21816 1368 ft 170 kts 242°
2026-05-06 15:45 41.79283 12.20175 1803 ft 194 kts 262°
2026-05-06 15:45 41.79237 12.18325 2266 ft 201 kts 264°
2026-05-06 15:45 41.79176 12.16436 2787 ft 203 kts 258°
2026-05-06 15:46 41.78700 12.14697 3335 ft 199 kts 232°
2026-05-06 15:46 41.77743 12.13360 3969 ft 200 kts 220°
2026-05-06 15:46 41.76715 12.12089 4721 ft 201 kts 220°
2026-05-06 15:46 41.75686 12.10814 5468 ft 202 kts 221°
2026-05-06 15:47 41.74647 12.09524 6198 ft 206 kts 221°
2026-05-06 15:47 41.73586 12.08206 6971 ft 210 kts 221°
2026-05-06 15:47 41.72516 12.06880 7973 ft 210 kts 222°
2026-05-06 15:47 41.71424 12.05538 8791 ft 216 kts 218°
2026-05-06 15:48 41.70102 12.04582 9617 ft 219 kts 197°
2026-05-06 15:48 41.68518 12.04339 9992 ft 242 kts 181°
2026-05-06 15:48 41.66753 12.04350 10222 ft 265 kts 181°
2026-05-06 15:48 41.64829 12.04359 10428 ft 288 kts 181°
2026-05-06 15:49 41.62760 12.04146 10587 ft 310 kts 194°
2026-05-06 15:49 41.60748 12.02960 10885 ft 324 kts 214°
2026-05-06 15:49 41.58950 12.01104 11487 ft 329 kts 218°
2026-05-06 15:49 41.57146 11.99193 12171 ft 332 kts 218°
2026-05-06 15:50 41.55327 11.97260 12831 ft 336 kts 218°
2026-05-06 15:50 41.53489 11.95307 13508 ft 340 kts 218°
2026-05-06 15:50 41.51630 11.93336 14141 ft 343 kts 218°
2026-05-06 15:50 41.49755 11.91355 14785 ft 345 kts 218°
2026-05-06 15:51 41.47892 11.89392 15421 ft 347 kts 218°
2026-05-06 15:51 41.45993 11.87394 16083 ft 349 kts 218°
2026-05-06 15:51 41.44082 11.85385 16741 ft 351 kts 218°
2026-05-06 15:51 41.42161 11.83366 17409 ft 353 kts 218°
2026-05-06 15:52 41.40264 11.81272 18031 ft 356 kts 223°
2026-05-06 15:52 41.38661 11.78745 18604 ft 360 kts 234°
2026-05-06 15:52 41.37472 11.75802 19140 ft 364 kts 246°
2026-05-06 15:52 41.36604 11.72617 19703 ft 367 kts 248°
2026-05-06 15:53 41.35744 11.69417 20282 ft 368 kts 248°
2026-05-06 15:53 41.34877 11.66207 20879 ft 370 kts 248°
2026-05-06 15:53 41.34001 11.62976 21443 ft 372 kts 247°
2026-05-06 15:53 41.33118 11.59737 22006 ft 373 kts 247°
2026-05-06 15:54 41.32231 11.56484 22565 ft 375 kts 247°
2026-05-06 15:54 41.31341 11.53222 23110 ft 376 kts 247°
2026-05-06 15:54 41.30447 11.49946 23618 ft 378 kts 247°
2026-05-06 15:54 41.29546 11.46660 24057 ft 379 kts 247°
2026-05-06 15:55 41.28641 11.43365 24487 ft 380 kts 247°
2026-05-06 15:55 41.27731 11.40057 24907 ft 381 kts 247°
2026-05-06 15:55 41.26819 11.36739 25338 ft 383 kts 247°
2026-05-06 15:55 41.25904 11.33414 25755 ft 384 kts 247°
2026-05-06 15:56 41.24984 11.30077 26186 ft 385 kts 246°
2026-05-06 15:56 41.24058 11.26723 26553 ft 388 kts 246°
2026-05-06 15:56 41.23128 11.23355 26945 ft 389 kts 246°
2026-05-06 15:56 41.22193 11.19970 27318 ft 391 kts 246°
2026-05-06 15:57 41.21253 11.16575 27702 ft 393 kts 246°
2026-05-06 15:57 41.20307 11.13168 28088 ft 394 kts 246°
2026-05-06 15:57 41.19356 11.09748 28461 ft 395 kts 246°
2026-05-06 15:57 41.18401 11.06318 28841 ft 397 kts 246°
2026-05-06 15:58 41.17440 11.02878 29191 ft 398 kts 246°
2026-05-06 15:58 41.16475 10.99421 29560 ft 400 kts 246°
2026-05-06 15:58 41.15508 10.95956 29929 ft 401 kts 246°
2026-05-06 15:58 41.14537 10.92474 30252 ft 403 kts 246°
2026-05-06 15:59 41.13575 10.89033 30568 ft 404 kts 246°
2026-05-06 15:59 41.12597 10.85538 30893 ft 405 kts 246°
2026-05-06 15:59 41.11619 10.82043 31275 ft 403 kts 246°
2026-05-06 15:59 41.10646 10.78566 31737 ft 400 kts 246°
2026-05-06 16:00 41.09680 10.75123 32216 ft 397 kts 246°
2026-05-06 16:00 41.08715 10.71708 32681 ft 394 kts 245°
2026-05-06 16:00 41.07758 10.68322 33141 ft 391 kts 246°
2026-05-06 16:00 41.06805 10.64959 33574 ft 388 kts 245°
2026-05-06 16:01 41.05858 10.61618 33947 ft 388 kts 246°
2026-05-06 16:01 41.04911 10.58277 34268 ft 387 kts 246°
2026-05-06 16:01 41.03965 10.54946 34623 ft 386 kts 246°
2026-05-06 16:01 41.03020 10.51625 34932 ft 385 kts 246°
2026-05-06 16:02 41.02075 10.48307 35232 ft 385 kts 246°
2026-05-06 16:02 41.01128 10.44993 35518 ft 385 kts 246°
2026-05-06 16:02 41.00180 10.41679 35799 ft 385 kts 246°
2026-05-06 16:02 40.99233 10.38365 36078 ft 385 kts 246°
2026-05-06 16:03 40.98299 10.35040 36348 ft 386 kts 248°
2026-05-06 16:03 40.97430 10.31679 36610 ft 386 kts 249°
2026-05-06 16:03 40.96604 10.28299 36873 ft 386 kts 250°
2026-05-06 16:03 40.95794 10.24905 37104 ft 387 kts 250°
2026-05-06 16:04 40.94982 10.21518 37346 ft 387 kts 250°
2026-05-06 16:04 40.94161 10.18129 37594 ft 387 kts 249°
2026-05-06 16:04 40.93330 10.14746 37806 ft 387 kts 249°
2026-05-06 16:04 40.92493 10.11366 38017 ft 387 kts 249°
2026-05-06 16:05 40.91650 10.07990 38231 ft 387 kts 249°
2026-05-06 16:05 40.90803 10.04615 38421 ft 387 kts 250°
2026-05-06 16:05 40.89955 10.01243 38613 ft 387 kts 250°
2026-05-06 16:05 40.89102 9.97868 38768 ft 387 kts 250°
2026-05-06 16:06 40.88248 9.94492 38900 ft 387 kts 250°
2026-05-06 16:06 40.87397 9.91114 39031 ft 388 kts 250°
2026-05-06 16:06 40.86544 9.87729 39149 ft 388 kts 250°
2026-05-06 16:06 40.85688 9.84346 39269 ft 389 kts 250°
2026-05-06 16:07 40.84829 9.80958 39398 ft 389 kts 250°
2026-05-06 16:07 40.83967 9.77571 39517 ft 389 kts 250°
2026-05-06 16:07 40.83104 9.74177 39631 ft 389 kts 250°
2026-05-06 16:07 40.82256 9.70836 39748 ft 389 kts 250°
2026-05-06 16:08 40.81397 9.67450 39865 ft 389 kts 250°
2026-05-06 16:08 40.80535 9.64061 39985 ft 389 kts 250°
2026-05-06 16:08 40.79674 9.60679 40105 ft 389 kts 250°
2026-05-06 16:08 40.78811 9.57298 40227 ft 388 kts 250°
2026-05-06 16:09 40.77950 9.53927 40349 ft 388 kts 250°
2026-05-06 16:09 40.77087 9.50562 40469 ft 387 kts 250°
2026-05-06 16:09 40.76222 9.47209 40593 ft 386 kts 250°
2026-05-06 16:09 40.75360 9.43866 40734 ft 385 kts 250°
2026-05-06 16:10 40.74502 9.40533 40869 ft 383 kts 250°
2026-05-06 16:10 40.73646 9.37207 40942 ft 383 kts 250°
2026-05-06 16:10 40.71917 9.30510 40951 ft 388 kts 250°
2026-05-06 16:11 40.70465 9.24898 40951 ft 391 kts 250°
2026-05-06 16:11 40.68704 9.18083 40951 ft 395 kts 250°
2026-05-06 16:12 40.66913 9.11202 40950 ft 399 kts 250°
2026-05-06 16:12 40.65108 9.04294 40948 ft 399 kts 250°
2026-05-06 16:13 40.63305 8.97393 40951 ft 399 kts 250°
2026-05-06 16:13 40.61499 8.90490 40955 ft 399 kts 250°
2026-05-06 16:14 40.59685 8.83587 40961 ft 399 kts 250°
2026-05-06 16:14 40.57860 8.76682 40961 ft 400 kts 250°
2026-05-06 16:15 40.56029 8.69768 40961 ft 400 kts 250°
2026-05-06 16:15 40.54204 8.62856 40960 ft 400 kts 250°
2026-05-06 16:16 40.52366 8.55949 40965 ft 400 kts 249°
2026-05-06 16:16 40.50518 8.49042 40967 ft 401 kts 249°
2026-05-06 16:17 40.48671 8.42138 40968 ft 401 kts 249°
2026-05-06 16:17 40.46816 8.35230 40967 ft 401 kts 249°
2026-05-06 16:18 40.44961 8.28334 40983 ft 401 kts 249°
2026-05-06 16:18 40.43626 8.21247 40975 ft 403 kts 263°
2026-05-06 16:19 40.43238 8.13899 40969 ft 404 kts 263°
2026-05-06 16:19 40.42827 8.06555 40967 ft 404 kts 263°
2026-05-06 16:20 40.42356 7.99217 40965 ft 402 kts 258°
2026-05-06 16:20 40.41458 7.92026 40979 ft 402 kts 258°
2026-05-06 16:21 40.40544 7.84793 40976 ft 402 kts 258°
2026-05-06 16:21 40.39624 7.77566 40973 ft 402 kts 258°
2026-05-06 16:22 40.38696 7.70333 40942 ft 403 kts 258°
2026-05-06 16:22 40.37766 7.63047 40921 ft 407 kts 258°
2026-05-06 16:23 40.36826 7.55704 40934 ft 410 kts 258°
2026-05-06 16:23 40.35869 7.48311 40935 ft 412 kts 258°
2026-05-06 16:24 40.34903 7.40899 40937 ft 413 kts 258°
2026-05-06 16:24 40.33930 7.33468 40945 ft 414 kts 258°
2026-05-06 16:25 40.32948 7.26028 40957 ft 415 kts 258°
2026-05-06 16:25 40.31967 7.18573 40963 ft 415 kts 258°
2026-05-06 16:26 40.30982 7.11116 40962 ft 416 kts 258°
2026-05-06 16:26 40.29981 7.03658 40964 ft 416 kts 258°
2026-05-06 16:27 40.28973 6.96197 40972 ft 416 kts 258°
2026-05-06 16:27 40.27969 6.88732 40973 ft 416 kts 258°
2026-05-06 16:28 40.26955 6.81269 40966 ft 416 kts 258°
2026-05-06 16:28 40.25938 6.73808 40972 ft 416 kts 258°
2026-05-06 16:29 40.24924 6.66353 40975 ft 416 kts 258°
2026-05-06 16:29 40.23905 6.58895 40975 ft 416 kts 258°
2026-05-06 16:30 40.23053 6.52702 40974 ft 416 kts 258°
2026-05-06 16:30 40.21832 6.43997 40993 ft 416 kts 257°
2026-05-06 16:31 40.20784 6.36550 40981 ft 416 kts 257°
2026-05-06 16:31 40.19754 6.29145 40975 ft 416 kts 257°
2026-05-06 16:32 40.18704 6.21697 40977 ft 416 kts 257°
2026-05-06 16:32 40.17646 6.14250 40977 ft 416 kts 257°
2026-05-06 16:33 40.16582 6.06808 40997 ft 417 kts 257°
2026-05-06 16:34 40.14991 5.95638 40980 ft 417 kts 257°
2026-05-06 16:34 40.13921 5.88191 40977 ft 417 kts 257°
2026-05-06 16:35 40.12848 5.80748 40974 ft 417 kts 257°
2026-05-06 16:35 40.11802 5.73294 40975 ft 417 kts 257°
2026-05-06 16:36 40.10753 5.65845 40972 ft 417 kts 257°
2026-05-06 16:36 40.09695 5.58409 40975 ft 417 kts 257°
2026-05-06 16:37 40.08633 5.50970 40974 ft 416 kts 257°
2026-05-06 16:37 40.07565 5.43543 40975 ft 416 kts 257°
2026-05-06 16:38 40.06493 5.36120 40975 ft 416 kts 257°
2026-05-06 16:38 40.05417 5.28700 40986 ft 416 kts 257°
2026-05-06 16:39 40.04339 5.21286 40979 ft 416 kts 257°
2026-05-06 16:39 40.03255 5.13876 40979 ft 416 kts 257°
2026-05-06 16:40 40.02163 5.06471 40976 ft 416 kts 257°
2026-05-06 16:40 40.01068 4.99070 40973 ft 416 kts 257°
2026-05-06 16:41 39.99976 4.91670 40986 ft 416 kts 257°
2026-05-06 16:41 39.98880 4.84323 40984 ft 415 kts 257°
2026-05-06 16:42 39.97764 4.76941 40977 ft 415 kts 256°
2026-05-06 16:42 39.96406 4.69635 40974 ft 414 kts 253°
2026-05-06 16:43 39.94849 4.62407 40971 ft 414 kts 253°
2026-05-06 16:43 39.93301 4.55178 40971 ft 414 kts 253°
2026-05-06 16:44 39.91804 4.47930 40977 ft 414 kts 253°
2026-05-06 16:44 39.90322 4.40679 40977 ft 414 kts 253°
2026-05-06 16:45 39.88823 4.33437 40976 ft 414 kts 253°
2026-05-06 16:45 39.87313 4.26197 40978 ft 414 kts 253°
2026-05-06 16:46 39.85620 4.19045 40995 ft 413 kts 249°
2026-05-06 16:46 39.83614 4.12035 40978 ft 413 kts 249°
2026-05-06 16:47 39.81602 4.05036 40979 ft 413 kts 249°
2026-05-06 16:47 39.79586 3.98047 40976 ft 413 kts 249°
2026-05-06 16:48 39.77571 3.91062 40979 ft 413 kts 249°
2026-05-06 16:48 39.75553 3.84084 40963 ft 411 kts 249°
2026-05-06 16:49 39.73578 3.77283 40632 ft 396 kts 249°
2026-05-06 16:49 39.72608 3.73954 40383 ft 393 kts 249°
2026-05-06 16:49 39.71642 3.70639 40144 ft 392 kts 249°
2026-05-06 16:49 39.70680 3.67333 39908 ft 391 kts 249°
2026-05-06 16:50 39.69717 3.64034 39671 ft 391 kts 249°
2026-05-06 16:50 39.68765 3.60783 39437 ft 390 kts 249°
2026-05-06 16:50 39.67802 3.57493 39214 ft 390 kts 249°
2026-05-06 16:50 39.67151 3.55272 39062 ft 389 kts 249°
2026-05-06 16:51 39.65875 3.50925 38765 ft 389 kts 249°
2026-05-06 16:51 39.64913 3.47652 38531 ft 388 kts 249°
2026-05-06 16:51 39.63938 3.44334 38242 ft 388 kts 249°
2026-05-06 16:51 39.62977 3.41066 37959 ft 388 kts 249°
2026-05-06 16:52 39.62028 3.37840 37688 ft 388 kts 249°
2026-05-06 16:52 39.61065 3.34572 37414 ft 388 kts 249°
2026-05-06 16:52 39.60100 3.31306 37143 ft 388 kts 249°
2026-05-06 16:52 39.59133 3.28044 36933 ft 388 kts 249°
2026-05-06 16:53 39.58164 3.24787 36950 ft 388 kts 249°
2026-05-06 16:53 39.56220 3.18250 36947 ft 389 kts 249°
2026-05-06 16:54 39.54278 3.11715 36944 ft 389 kts 249°
2026-05-06 16:54 39.52329 3.05180 36968 ft 389 kts 249°
2026-05-06 16:54 39.51355 3.01922 36750 ft 387 kts 249°
2026-05-06 16:55 39.50382 2.98676 36186 ft 386 kts 249°
2026-05-06 16:55 39.49411 2.95431 35628 ft 386 kts 249°
2026-05-06 16:55 39.48439 2.92196 35067 ft 386 kts 249°
2026-05-06 16:55 39.47469 2.88968 34574 ft 383 kts 249°
2026-05-06 16:56 39.46506 2.85773 34174 ft 379 kts 249°
2026-05-06 16:56 39.45554 2.82612 33740 ft 375 kts 249°
2026-05-06 16:56 39.44615 2.79487 33231 ft 371 kts 249°
2026-05-06 16:56 39.43579 2.76441 32702 ft 369 kts 242°
2026-05-06 16:57 39.42175 2.73677 32177 ft 368 kts 233°
2026-05-06 16:57 39.40558 2.71122 31637 ft 366 kts 233°
2026-05-06 16:57 39.38949 2.68581 31111 ft 364 kts 233°
2026-05-06 16:57 39.37355 2.66053 30617 ft 362 kts 233°
2026-05-06 16:58 39.36308 2.64387 30306 ft 360 kts 233°
2026-05-06 16:58 39.34737 2.61887 29783 ft 357 kts 233°
2026-05-06 16:58 39.33171 2.59403 29224 ft 355 kts 233°
2026-05-06 16:58 39.31111 2.56144 28456 ft 353 kts 232°
2026-05-06 16:59 39.29563 2.53698 27923 ft 351 kts 232°
2026-05-06 16:59 39.28522 2.52053 27589 ft 349 kts 232°
2026-05-06 16:59 39.26989 2.49631 27096 ft 347 kts 232°
2026-05-06 16:59 39.24972 2.46445 26484 ft 345 kts 232°
2026-05-06 17:00 39.23948 2.44830 26191 ft 343 kts 233°
2026-05-06 17:00 39.22441 2.42455 25776 ft 341 kts 232°
2026-05-06 17:00 39.20943 2.40097 25339 ft 339 kts 232°
2026-05-06 17:00 39.19451 2.37749 24911 ft 337 kts 232°
2026-05-06 17:01 39.17968 2.35415 24479 ft 336 kts 232°
2026-05-06 17:01 39.16492 2.33093 24043 ft 334 kts 232°
2026-05-06 17:01 39.15022 2.30780 23621 ft 333 kts 232°
2026-05-06 17:01 39.13558 2.28482 23136 ft 331 kts 232°
2026-05-06 17:02 39.12100 2.26196 22607 ft 330 kts 232°
2026-05-06 17:02 39.10644 2.23919 22090 ft 329 kts 232°
2026-05-06 17:02 39.09195 2.21651 21578 ft 327 kts 232°
2026-05-06 17:02 39.07753 2.19394 21072 ft 326 kts 232°
2026-05-06 17:03 39.06336 2.17178 20606 ft 325 kts 232°
2026-05-06 17:03 39.04899 2.14933 20159 ft 325 kts 232°
2026-05-06 17:03 39.03460 2.12685 19719 ft 331 kts 232°
2026-05-06 17:03 39.01907 2.10257 19277 ft 358 kts 232°
2026-05-06 17:04 39.00326 2.07790 18849 ft 365 kts 232°
2026-05-06 17:04 38.98708 2.05269 18421 ft 366 kts 232°
2026-05-06 17:04 38.97085 2.02750 17973 ft 371 kts 232°
2026-05-06 17:04 38.95402 2.00139 17489 ft 384 kts 232°
2026-05-06 17:05 38.93695 1.97487 17009 ft 385 kts 232°
2026-05-06 17:05 38.92002 1.94832 16543 ft 383 kts 234°
2026-05-06 17:05 38.90660 1.91906 16079 ft 380 kts 247°
2026-05-06 17:05 38.89873 1.88684 15638 ft 378 kts 255°
2026-05-06 17:06 38.89208 1.85425 15189 ft 377 kts 255°
2026-05-06 17:06 38.88543 1.82181 14748 ft 375 kts 255°
2026-05-06 17:06 38.87880 1.78954 14318 ft 373 kts 255°
2026-05-06 17:06 38.87219 1.75747 13874 ft 370 kts 255°
2026-05-06 17:07 38.86562 1.72564 13422 ft 368 kts 255°
2026-05-06 17:07 38.85908 1.69396 12953 ft 367 kts 255°
2026-05-06 17:07 38.85253 1.66238 12487 ft 366 kts 255°
2026-05-06 17:07 38.84599 1.63092 12025 ft 366 kts 255°
2026-05-06 17:08 38.83927 1.59848 11571 ft 382 kts 255°
2026-05-06 17:08 38.83230 1.56542 11123 ft 385 kts 255°
2026-05-06 17:08 38.82506 1.53239 10679 ft 385 kts 255°
2026-05-06 17:08 38.81767 1.49947 10248 ft 384 kts 255°
2026-05-06 17:09 38.81026 1.46671 9821 ft 382 kts 255°
2026-05-06 17:09 38.80266 1.43448 9338 ft 373 kts 251°
2026-05-06 17:09 38.79165 1.40526 8697 ft 351 kts 243°
2026-05-06 17:09 38.78059 1.37868 8058 ft 327 kts 243°
2026-05-06 17:10 38.77023 1.35377 7433 ft 308 kts 243°
2026-05-06 17:10 38.76044 1.33012 6827 ft 294 kts 243°
2026-05-06 17:10 38.75104 1.30741 6203 ft 283 kts 242°
2026-05-06 17:10 38.74195 1.28544 5566 ft 275 kts 242°
2026-05-06 17:11 38.73319 1.26431 4950 ft 269 kts 241°
2026-05-06 17:11 38.72438 1.24312 4331 ft 262 kts 241°
2026-05-06 17:11 38.71787 1.22233 3729 ft 253 kts 261°
2026-05-06 17:11 38.71967 1.20027 3102 ft 245 kts 293°
2026-05-06 17:12 38.72961 1.18330 2479 ft 237 kts 324°
2026-05-06 17:12 38.74286 1.17200 2144 ft 219 kts 330°
2026-05-06 17:12 38.75615 1.16225 2027 ft 221 kts 337°
2026-05-06 17:12 38.77042 1.15480 2000 ft 222 kts 342°
2026-05-06 17:13 38.78487 1.14797 1995 ft 221 kts 344°
2026-05-06 17:13 38.79989 1.14691 1993 ft 216 kts 17°
2026-05-06 17:13 38.81271 1.15627 1998 ft 212 kts 45°
2026-05-06 17:13 38.82016 1.17224 1993 ft 210 kts 78°
2026-05-06 17:14 38.82010 1.19069 2008 ft 210 kts 93°
2026-05-06 17:14 38.81953 1.20939 2005 ft 208 kts 91°
2026-05-06 17:14 38.81910 1.22789 2007 ft 206 kts 90°
2026-05-06 17:14 38.82142 1.24484 1920 ft 183 kts 72°
2026-05-06 17:15 38.82616 1.25927 1751 ft 171 kts 65°
2026-05-06 17:15 38.83171 1.27354 1535 ft 183 kts 63°
2026-05-06 17:15 38.83760 1.28802 1302 ft 183 kts 63°
2026-05-06 17:15 38.84350 1.30230 1056 ft 172 kts 63°
2026-05-06 17:16 38.84882 1.31510 830 ft 152 kts 63°
2026-05-06 17:16 38.85363 1.32671 633 ft 143 kts 65°
2026-05-06 17:16 38.85823 1.33780 426 ft 141 kts 63°
2026-05-06 17:16 38.86284 1.34887 229 ft 139 kts 64°
2026-05-06 17:17 38.86734 1.35967 40 ft 137 kts 64°
2026-05-06 17:17 38.87137 1.36956 11 ft 100 kts 63°
2026-05-06 17:17 38.87335 1.37406 10 ft 32 kts 46°
2026-05-06 17:17 38.87479 1.37524 10 ft 10 kts 32°
2026-05-06 17:18 38.87492 1.37534 9 ft 0 kts 31°
2026-05-06 17:18 38.87502 1.37542 9 ft 4 kts 31°
2026-05-06 17:18 38.87541 1.37539 9 ft 8 kts 319°
2026-05-06 17:19 38.87532 1.37462 9 ft 11 kts 243°
2026-05-06 17:19 38.87488 1.37355 9 ft 15 kts 241°
2026-05-06 17:19 38.87466 1.37271 9 ft 8 kts 294°
2026-05-06 17:19 38.87511 1.37235 9 ft 6 kts 332°
2026-05-06 17:20 38.87537 1.37217 9 ft 1 kts 332°
2026-05-06 17:20 38.87544 1.37212 10 ft 0 kts 332°